Location: Newark
(52.8300°N, 8.0000°E)
Time: 05:35:18
(UTC+00:00)

STARLINK-1077 - Pass Details

Date: 31 January 2020
Orbit: 348 x 351 km, 53.0° (Epoch: 26 February)

Event Time Altitude Azimuth Distance (km) Brightness Sun altitude
Rises 16:50:33 0° 283° (WNW) 2,178 7.7 -6.4°
Reaches altitude 10° 16:52:36 10° 277° (W) 1,332 6.7 -6.7°
Maximum altitude 16:55:28 46° 203° (SSW) 490 3.8 -7.1°
Drops below altitude 10° 16:58:19 10° 128° (SE) 1,327 5.3 -7.5°
Enters shadow 17:00:09 - 123° (ESE) 2,075 6.2 -7.8°
